Fryeburg, ME

5:26 AM EST on November 13, 2019 (GMT -0500)
Eastern Slopes Regional

Weather History for KIZG - September, 2019

Change the Weather History Date:

Saturday, September 21, 2019

  Actual Average Record
Temperature  
Mean Temperature 65 °F -  
Max Temperature 82 °F 68 °F 84 °F (2002)
Min Temperature 48 °F 42 °F 33 °F (2010)
Growing Degree Days 15 (Base 50)    
Moisture  
Dew Point 56 °F    
Average Humidity 75    
Maximum Humidity 97    
Minimum Humidity 44    
Precipitation  
Precipitation 0.00 in - - ()
Sea Level Pressure  
Sea Level Pressure 30.16 in    
Wind  
Wind Speed 2 mph (NNE)    
Max Wind Speed 6 mph    
Max Gust Speed -    
Visibility 10 miles    
Events      
Averages and records for this station are not official NWS values.
T = Trace of Precipitation, MM = Missing Value Source: NWS Daily Summary

Daily Weather History Graph

Daily Weather History Graph

Search for Another Location

Airport or City:

Astronomy

Sep. 21, 2019 Rise Set
Actual Time 6:29 AM EDT 6:43 PM EDT
Civil Twilight 6:00 AM EDT 7:12 PM EDT
Nautical Twilight 5:26 AM EDT 7:46 PM EDT
Astronomical Twilight 4:52 AM EDT 8:20 PM EDT
Moon 11:05 PM EDT (9/21) 1:45 PM EDT (9/21)
Length of Visible Light 13h 11m
Length of Day
12h 13m
Waning Gibbous, 55% of the Moon is Illuminated
Sep 21
Waning Gibbous
Sep 21
Last Quarter
Sep 28
New
Oct 5
First Quarter
Oct 13
Full

Hourly Weather History & Observations

Time (EDT) Temp. Heat Index Dew Point Humidity Pressure Visibility Wind Dir Wind Speed Gust Speed Precip Events Conditions
12:54 AM 52.0 °F - 48.9 °F 89% 30.13 in 10.0 mi Variable 3.5 mph - N/A   Clear
1:54 AM 48.9 °F - 46.9 °F 93% 30.12 in 10.0 mi Calm Calm - N/A   Clear
2:54 AM 50.0 °F - 48.0 °F 93% 30.13 in 10.0 mi Calm Calm - N/A   Clear
3:54 AM 48.9 °F - 48.0 °F 97% 30.14 in 10.0 mi NNW 3.5 mph - N/A   Clear
4:54 AM 48.9 °F - 46.9 °F 93% 30.14 in 10.0 mi Calm Calm - N/A   Clear
5:54 AM 48.9 °F - 46.9 °F 93% 30.16 in 10.0 mi Calm Calm - N/A   Clear
6:54 AM 50.0 °F - 48.0 °F 93% 30.18 in 10.0 mi Calm Calm - N/A   Clear
7:54 AM 60.1 °F - 55.9 °F 86% 30.19 in 10.0 mi Calm Calm - N/A   Clear
8:54 AM 69.1 °F - 57.9 °F 68% 30.20 in 10.0 mi Calm Calm - N/A   Clear
9:54 AM 73.9 °F - 57.0 °F 55% 30.20 in 10.0 mi Calm Calm - N/A   Clear
10:54 AM 78.1 °F - 59.0 °F 52% 30.19 in 10.0 mi Variable 4.6 mph - N/A   Clear
11:54 AM 78.1 °F - 57.9 °F 50% 30.19 in 10.0 mi East 4.6 mph - N/A   Clear
12:54 PM 81.0 °F 81.0 °F 57.0 °F 44% 30.17 in 10.0 mi North 5.8 mph - N/A   Clear
1:54 PM 81.0 °F 81.1 °F 57.9 °F 45% 30.15 in 10.0 mi Calm Calm - N/A   Clear
2:54 PM 82.0 °F 82.0 °F 57.9 °F 44% 30.14 in 10.0 mi NE 5.8 mph - N/A   Clear
3:54 PM 81.0 °F 81.1 °F 57.9 °F 45% 30.14 in 10.0 mi East 5.8 mph - N/A   Clear
4:54 PM 80.1 °F 81.1 °F 61.0 °F 52% 30.14 in 10.0 mi Calm Calm - N/A   Partly Cloudy
5:54 PM 78.1 °F - 61.0 °F 56% 30.14 in 10.0 mi Calm Calm - N/A   Mostly Cloudy
6:54 PM 70.0 °F - 66.0 °F 87% 30.14 in 10.0 mi Calm Calm - N/A   Mostly Cloudy
7:54 PM 64.9 °F - 63.0 °F 93% 30.15 in 10.0 mi Calm Calm - N/A   Clear
8:54 PM 62.1 °F - 60.1 °F 93% 30.15 in 10.0 mi NW 3.5 mph - N/A   Clear
9:54 PM 61.0 °F - 59.0 °F 93% 30.16 in 10.0 mi Calm Calm - N/A   Clear
10:54 PM 57.0 °F - 55.9 °F 96% 30.17 in 7.0 mi Calm Calm - N/A   Clear
11:54 PM 57.0 °F - 55.0 °F 93% 30.17 in 10.0 mi Calm Calm - N/A   Clear